Theta_e
313 314 317 318 318 319 317 315 314 313 312 311 311 311 312 313 313 314 316 316 320 321 317 316 319 320 320 320 320 321 316 315 326 338 335 337 337 338 337 335 336 336 335 335 335
313 313 316 318 318 318 317 315 314 313 312 312 312 313 313 314 313 315 317 321 320 319 317 317 320 321 321 320 322 319 314 327 336 337 337 338 341 341 339 338 337 336 335 336 336
312 313 314 317 318 318 315 314 314 313 312 312 313 313 313 314 320 321 319 320 318 316 317 320 320 321 321 321 321 320 321 336 340 338 339 335 337 341 339 340 338 336 336 336 337
311 312 313 314 317 318 317 314 314 314 314 315 316 315 315 318 328 328 325 324 319 316 319 319 321 321 319 320 322 321 338 340 340 337 335 334 335 337 337 339 337 337 336 336 336
311 312 312 314 315 318 318 316 317 320 321 322 322 321 320 324 329 327 323 322 317 316 318 319 321 321 319 320 321 333 336 340 340 339 338 335 335 335 336 340 337 337 337 337 337
312 312 312 313 314 316 317 318 318 320 319 320 320 321 321 327 325 323 318 317 317 317 319 321 321 321 320 320 320 326 337 338 340 335 335 334 333 338 334 339 338 338 338 339 341
312 312 312 313 314 314 316 317 318 319 319 319 319 320 322 328 325 323 318 317 319 320 319 320 321 321 322 319 323 336 337 335 338 337 336 335 340 337 338 338 338 339 341 346 347
313 313 313 313 313 314 315 318 319 317 319 320 320 323 326 328 329 322 319 319 319 319 320 321 321 322 322 322 321 322 319 318 334 335 337 339 344 340 340 341 341 342 347 347 347
313 313 313 313 313 315 320 322 323 323 318 318 319 321 326 327 324 323 321 320 320 321 321 321 321 320 320 316 315 315 319 320 321 335 338 335 343 341 343 342 345 346 347 346 346
312 313 314 314 314 316 321 322 319 323 321 321 322 320 322 327 324 323 322 322 321 321 321 321 321 313 312 313 316 319 320 318 318 320 335 335 342 340 340 344 345 346 346 346 346
312 313 314 314 314 318 320 319 319 321 319 319 319 322 322 326 325 324 323 322 323 322 319 320 316 314 314 314 316 318 318 319 320 319 322 337 343 342 343 344 343 345 345 345 344
312 312 313 314 315 318 320 320 320 319 318 319 319 320 320 323 322 323 323 322 322 321 320 317 316 316 316 316 317 318 318 317 323 324 321 335 344 343 342 343 343 343 344 345 345
313 313 313 313 315 317 319 320 319 319 319 319 319 319 322 322 322 323 322 322 321 320 319 317 319 320 319 318 319 319 319 320 323 326 325 324 325 331 335 342 343 343 344 345 345
312 313 313 313 314 315 317 319 319 320 318 323 323 322 322 322 322 323 323 322 320 320 319 318 319 320 320 320 319 321 320 322 325 326 326 324 325 321 322 332 341 341 343 344 343
307 308 309 310 312 313 316 319 320 321 327 328 324 323 323 322 323 322 323 322 320 320 321 320 321 321 322 323 323 322 321 325 323 321 321 322 320 320 324 331 329 335 342 342 343
306 307 308 308 310 313 316 318 321 321 328 327 323 321 320 321 322 323 323 323 322 320 320 320 323 322 322 323 323 322 322 319 318 317 320 320 320 319 319 325 331 333 341 341 341
308 308 308 309 311 310 317 319 319 321 324 325 324 322 319 320 321 322 321 319 318 321 319 320 322 322 324 324 322 318 317 318 320 321 322 319 321 319 322 325 326 337 340 339 339
308 309 310 310 310 310 318 318 322 323 325 324 322 323 321 321 322 322 320 319 318 318 318 320 321 323 323 323 321 321 317 317 321 321 321 321 324 326 327 326 331 339 339 338 337
308 309 311 312 310 316 320 318 318 322 323 321 322 323 323 322 323 321 319 319 319 317 319 319 322 324 324 323 322 322 321 317 319 320 321 321 329 329 327 327 333 338 337 336 337
306 309 312 316 310 317 316 317 319 320 319 319 320 321 320 321 322 321 320 321 321 320 319 320 322 324 327 323 322 320 321 321 317 325 325 323 326 328 329 327 327 334 335 335 336
306 309 312 319 313 316 316 316 319 318 318 320 320 320 320 321 322 322 325 324 323 322 320 319 320 322 326 324 322 323 322 318 316 320 323 324 322 325 327 326 325 327 335 336 336
305 311 318 317 318 318 317 318 320 320 319 320 320 320 321 321 322 322 326 325 324 327 325 320 319 321 324 325 325 323 323 319 320 320 320 319 319 321 325 327 327 328 330 335 335
304 310 311 311 317 316 318 320 320 320 320 320 321 322 321 320 320 321 323 324 323 325 325 325 319 321 321 321 321 326 325 321 319 318 322 324 323 324 326 325 329 329 330 334 335
305 311 316 317 316 316 318 318 319 319 319 321 320 321 322 322 319 321 323 324 325 325 326 325 323 320 322 321 321 327 327 326 322 323 323 322 323 322 322 324 326 330 331 333 335
305 310 312 313 315 313 317 317 319 319 319 319 318 321 321 321 322 323 323 323 324 325 325 320 321 326 325 327 327 326 325 324 324 323 326 325 323 323 321 321 325 328 330 330 328
307 313 313 313 313 317 318 319 321 321 321 321 318 320 320 320 320 320 322 322 324 325 326 322 323 325 326 326 326 326 325 324 323 323 322 323 324 321 324 324 325 327 326 329 329
309 312 314 314 314 313 315 319 319 315 316 319 320 322 322 322 324 325 325 325 325 325 323 324 323 324 325 327 327 327 324 324 323 322 322 323 321 322 322 323 326 325 329 330 329
Wind_Speed
26 25 23 24 22 19 16 14 12 11 10 7 6 4 4 5 8 10 11 5 4 3 6 2 5 3 8 7 6 6 3 4 3 9 2 5 1 4 12 23 6 3 27 30 29
24 25 23 24 25 22 17 15 12 11 9 7 6 4 4 4 7 12 5 4 4 5 7 3 3 8 6 5 3 3 4 3 8 20 7 9 9 5 9 9 7 18 30 28 29
24 24 23 22 24 23 19 15 13 11 9 7 6 5 3 4 5 1 5 3 3 3 2 5 10 13 5 9 5 3 5 6 14 30 35 17 13 17 21 9 7 29 33 31 32
23 23 22 21 21 22 20 15 12 10 9 8 6 4 4 4 1 2 5 4 2 3 7 6 6 6 5 2 8 6 24 12 21 33 34 24 24 17 19 11 23 29 28 31 36
22 22 22 21 19 18 18 15 11 10 9 9 7 6 5 5 3 5 7 3 4 6 8 7 12 10 3 8 12 14 6 16 25 24 28 25 13 4 13 19 24 29 28 30 27
23 22 21 20 19 16 15 14 11 10 10 10 9 9 7 4 1 9 3 4 5 7 4 7 15 19 16 6 1 3 21 19 16 22 17 12 3 1 23 23 25 30 28 16 20
23 22 21 21 19 17 13 12 11 10 10 11 11 12 12 7 1 6 4 3 3 2 10 13 13 14 11 10 14 30 13 6 8 17 6 22 5 4 10 23 29 19 21 24 22
24 23 22 20 19 18 14 12 12 10 10 12 12 13 7 1 7 4 1 5 1 5 11 13 15 13 3 10 9 6 10 8 12 13 18 7 7 10 25 23 19 26 28 23 19
24 23 22 20 19 17 12 16 12 10 9 11 12 8 10 6 9 5 6 3 2 3 5 9 13 5 5 4 5 8 2 2 7 24 13 4 8 18 29 26 28 33 29 23 18
24 23 22 19 18 14 13 14 18 5 4 11 9 8 9 4 5 6 8 7 9 7 6 4 4 4 5 6 2 2 4 5 6 11 13 14 10 20 30 32 30 33 28 25 20
24 24 22 18 16 11 13 21 26 6 24 20 24 22 29 8 7 7 8 10 8 5 3 4 3 5 9 6 6 2 4 4 8 7 8 13 15 23 32 26 25 31 30 25 21
23 24 22 18 14 8 12 17 21 19 18 29 27 27 31 20 14 12 12 6 1 3 2 5 5 11 7 8 5 6 6 7 7 4 6 9 18 20 22 31 38 35 34 33 29
24 24 23 19 12 6 7 16 16 19 7 20 13 20 30 16 20 15 15 12 5 3 5 6 11 2 7 10 5 5 6 4 5 3 5 8 2 5 8 20 30 35 42 42 41
25 24 23 21 8 12 5 13 13 16 4 6 5 5 11 13 8 17 16 15 3 11 5 6 14 9 12 10 7 3 5 4 3 5 3 4 3 6 10 15 22 28 33 42 42
23 22 21 20 20 13 12 12 9 5 4 3 5 6 13 12 2 10 15 22 8 7 2 11 7 7 6 6 6 8 0 1 4 4 4 1 4 8 6 9 12 20 35 41 48
22 20 21 19 18 9 12 11 8 5 5 4 6 5 6 10 12 2 9 23 9 3 2 10 14 6 8 5 3 3 5 8 5 4 2 5 5 7 5 9 17 22 37 42 45
22 20 20 21 16 13 8 8 4 3 6 2 5 5 7 6 5 6 5 6 5 3 4 7 7 5 3 3 6 8 7 4 4 4 5 5 2 8 9 6 12 29 36 38 43
24 23 20 19 14 8 2 4 2 4 6 6 8 3 8 8 6 6 6 5 5 5 1 2 8 2 2 4 8 4 8 6 5 4 5 6 3 5 6 11 15 30 41 37 38
26 24 23 11 7 10 5 3 7 5 2 7 11 2 2 3 3 6 9 9 9 10 8 6 6 4 6 7 10 5 2 5 6 2 3 4 1 4 6 9 18 23 29 36 42
25 25 17 1 14 15 4 6 6 4 7 6 2 2 7 5 5 5 6 8 7 12 16 8 3 2 4 4 5 8 6 3 4 3 3 4 4 5 3 6 9 15 24 30 39
18 12 3 4 19 9 4 7 5 16 12 3 5 7 6 1 2 5 4 5 4 8 15 7 7 7 2 1 5 1 1 5 5 5 5 2 5 6 10 8 10 18 33 41 42
8 3 7 9 7 4 3 5 5 11 16 6 6 6 4 2 2 1 5 2 15 4 3 7 6 6 8 5 6 6 5 5 5 6 3 4 6 5 9 17 23 24 26 37 41
5 9 12 11 4 3 5 4 8 12 13 6 4 5 8 6 2 6 5 5 12 3 1 0 1 1 8 5 5 3 4 5 4 4 6 6 6 5 7 12 25 25 27 32 40
3 3 6 5 8 6 5 6 6 11 13 11 8 11 4 3 4 4 3 3 14 4 3 2 4 6 9 9 5 4 3 4 6 4 4 6 6 7 8 9 14 27 30 36 39
4 6 5 4 3 6 2 4 8 9 7 3 7 5 6 7 3 4 3 4 6 3 2 5 6 5 5 5 3 5 6 6 5 6 6 6 7 9 11 11 26 31 30 35 30
3 4 8 11 12 5 2 3 4 7 5 7 8 9 4 3 7 8 2 1 4 3 3 3 2 1 2 5 8 10 8 7 7 5 5 7 8 10 18 14 13 27 20 27 30
5 8 4 7 5 4 4 3 4 9 12 7 7 6 5 2 1 4 2 2 4 2 1 2 4 3 5 5 7 8 8 10 7 7 7 8 9 5 5 10 9 19 32 36 38
Wind_Direction
20 20 19 15 9 0 355 352 347 345 344 339 327 314 285 256 251 252 250 224 227 310 320 276 235 243 272 271 267 219 57 17 12 89 121 151 3 11 85 128 147 76 148 147 162
15 17 14 13 12 9 2 357 356 354 353 354 353 337 307 277 265 260 208 228 255 304 313 293 291 307 301 266 247 138 81 232 144 128 110 99 98 86 92 43 51 134 140 149 161
8 11 11 9 10 10 9 3 3 5 3 5 4 1 334 300 297 58 224 263 294 308 240 271 298 306 264 260 257 100 147 188 134 130 130 123 136 147 129 141 238 155 161 162 168
4 4 7 5 5 8 11 9 12 18 17 15 11 7 327 321 206 348 324 247 263 255 222 276 327 336 312 258 252 108 147 155 150 130 129 143 137 149 151 144 156 163 166 169 182
359 358 360 1 358 0 8 10 12 13 8 4 6 356 346 317 280 339 314 215 219 215 238 299 322 326 246 286 306 103 140 150 159 157 141 144 150 218 164 129 153 167 181 186 192
354 355 354 355 355 351 356 2 350 350 355 354 358 351 326 291 314 10 271 191 199 204 234 317 311 326 276 300 300 134 139 130 141 124 140 140 122 57 175 160 169 169 189 175 173
350 350 350 351 350 347 344 347 338 325 330 336 346 336 306 273 90 351 334 158 154 318 320 340 335 341 332 328 348 130 107 56 159 145 124 120 10 264 112 169 174 175 163 151 141
347 347 347 349 347 345 342 342 331 315 308 315 328 327 278 236 250 236 95 150 186 320 318 328 321 324 332 314 340 167 124 152 217 209 173 127 209 240 172 176 193 174 161 157 153
343 344 344 348 346 347 357 343 335 307 301 306 311 322 282 190 240 231 246 238 300 0 319 321 326 335 356 50 9 5 219 277 148 205 163 196 160 222 185 182 170 157 156 156 154
341 341 341 345 347 346 1 12 10 354 352 323 289 303 257 313 215 183 222 260 268 252 283 287 324 21 16 64 215 284 9 315 270 190 197 185 176 190 199 174 163 158 166 167 173
336 335 337 342 345 342 7 29 15 353 321 288 279 271 280 288 238 197 230 246 256 204 181 275 65 252 256 218 219 204 232 250 270 250 127 173 158 182 183 164 162 170 181 181 193
331 331 330 338 340 329 360 21 5 334 304 298 280 266 266 264 284 261 209 255 220 250 2 3 256 240 249 283 266 266 265 277 276 38 84 161 175 182 175 180 180 176 176 177 176
326 328 327 329 330 308 0 1 1 349 296 302 264 241 239 245 246 215 202 209 193 262 248 180 244 229 216 260 257 263 211 204 210 355 39 119 26 186 222 195 191 187 184 182 185
321 324 325 325 319 333 350 333 329 346 21 279 212 227 205 223 243 221 212 202 187 223 229 228 262 238 256 257 166 227 214 198 104 113 200 115 249 228 212 203 202 186 178 180 177
316 319 318 319 312 327 324 318 328 10 354 178 194 180 184 187 200 191 219 209 218 239 97 263 291 300 217 202 171 215 182 91 77 117 105 42 101 259 149 206 215 184 181 181 186
313 317 312 309 302 321 322 334 331 43 258 270 162 157 119 204 239 154 184 204 241 214 227 257 281 214 221 230 189 82 72 36 47 93 43 232 124 291 211 203 217 177 181 181 183
310 310 305 296 295 309 318 335 37 155 312 50 213 160 167 197 245 167 167 171 182 20 310 335 296 280 182 111 29 78 60 7 359 12 231 317 83 239 304 224 198 173 179 179 181
311 310 298 284 294 283 270 58 205 259 274 339 346 200 171 184 238 187 152 194 256 131 156 215 319 28 291 206 173 186 145 153 195 205 250 319 296 286 318 320 150 168 169 172 176
314 312 301 301 256 188 148 114 215 217 306 356 338 64 259 240 226 158 186 200 213 173 175 176 252 277 278 216 144 175 124 184 110 78 82 265 197 352 351 28 83 130 154 167 180
322 321 317 339 189 171 97 214 231 239 359 20 306 326 351 342 37 37 204 203 225 195 179 224 274 248 341 48 52 137 158 61 13 168 220 281 284 234 232 142 123 140 160 176 183
323 326 359 240 169 161 190 221 251 271 293 262 290 284 241 118 92 348 289 335 338 262 157 171 154 262 56 60 189 49 107 68 119 137 170 201 265 216 204 190 172 171 180 187 190
312 314 130 125 185 192 207 198 239 278 293 287 298 271 257 165 184 194 251 274 342 320 248 198 157 215 193 189 154 161 231 139 131 260 217 160 263 276 196 200 191 193 186 193 200
291 278 263 251 197 243 273 263 276 279 278 272 267 281 269 225 251 202 210 260 315 24 323 356 343 115 323 346 356 165 187 164 114 76 203 155 253 237 239 209 210 199 199 198 200
292 321 288 222 228 160 225 250 252 281 285 276 266 257 238 244 195 252 269 297 341 220 195 79 135 165 207 211 172 173 221 158 130 122 216 205 232 279 258 236 213 210 207 197 198
230 252 347 312 340 343 321 282 285 294 266 330 337 332 263 204 235 238 257 317 342 318 244 124 195 196 212 236 263 227 212 233 196 208 174 250 217 239 231 217 216 211 209 202 195
258 340 339 306 305 289 221 258 249 281 230 295 216 276 276 239 230 242 228 178 204 317 75 4 275 189 261 257 256 264 254 222 233 245 242 238 256 247 269 275 220 228 181 171 182
228 263 288 274 318 5 251 249 305 333 290 266 320 293 308 271 322 168 171 293 260 160 224 150 133 88 255 260 295 280 219 236 250 227 201 249 240 209 225 170 219 166 170 166 169